DELTA 1 DEB, 27727

Orbit data source: Space-Track

DELTA 1 DEB, 27727 is space debris in LEO originally from a launch on Thu, 29 Jul 1976 UTC launched from the Air Force Western Test Range (AFWTR). Debris objects in space refer to the collection of defunct objects orbiting the Earth. Examples of debris include non-operational satellites, rocket bodies, and fragments generated from explosions, collisions, or faulty payload assembly.

Loading next visibility...
Identifier
27727, 1976-077FS
Orbit
LEO
Country
Flag of USUS
Related business
Manufacturer
Unknown
Mission
Spacecraft
Bus & Motor
Unknown
Mass
Unknown
Launch date (UTC)
1976-07-29 (50 years ago)
Launch vehicle
Unknown
Launch site
Air Force Western Test Range (AFWTR)
Object type
Payload
Rocket body
Debris
Shape & HBR
Unknown shape, 0.1 m
Radar Cross Section
Small (<0.1 m²)

Expand to show TLE details & history
Last TLE update: 11 hours ago

TLE from 11 hours ago
0 DELTA 1 DEB
1 27727U 76077FS  26104.78921589  .00000057  00000-0  14361-2 0  9993
2 27727 102.7077 199.5926 0412891 261.0555 257.6497 11.68376296504177
Epoch: 2026-04-14T18:56Z
TLE epoch observation values (Epoch: 2026-04-14T18:56:28.252Z)
Latitude
25.21073°
Longitude
-101.4198°
Altitude
1,913.875 km
Speed
6.9 km/s
True Right ascension
01h 42m 38s
True Declination
25° 05' 49"
Sunlit
Object was in daylight at epoch
Visualization orbit readout
Latitude
Unknown
Longitude
Unknown
Altitude
Unknown
Speed
Unknown
Apparent Right ascension
Unknown
Apparent Declination
Unknown
Sunlit
N/A
Visualization observer readout
Local Sidereal Time
12:18:41
Azimuth
Unknown
Elevation
Unknown
Doppler factor
Unknown
Orbital elements
Apogee altitude
2,161.967 km
Perigee altitude
1,484.704 km
Semi-major axis
8,201.473 km
Eccentricity
0.04129
Inclination
102.7077°
RAAN
199.5926°
Arg. of periapsis
261.0555°
True anomaly
253.08313°
Mean anomaly
257.6497°
Eccentric anomaly
255.36081°
Mean motion
2.92217 °/min
Orbital period
123.2 mins
BSTAR
0.0014361
Loading maneuver chart data...
Computing Atmospheric mass density...
Loading historical data...
Loading historical data...
Loading historical data...
Loading historical data...
Loading historical data...
Loading historical data...
Loading historical data...

Documentation

Showing up to 5 results
|